Time,TemperatureF,DewpointF,PressureIn,WindDirection,WindDirectionDegrees,WindSpeedMPH,WindSpeedGustMPH,Humidity,HourlyPrecipIn,Conditions,Clouds,dailyrainin,SoftwareType,DateUTC
2013-05-01 00:01:00,59.6,56.0,30.14,North,354,0.0,0.0,88,0.00,,,0.00,WUHU216DAVISVP2,2013-05-01 04:01:00,
2013-05-01 00:07:00,59.9,56.3,30.14,North,354,0.0,0.0,88,0.00,,,0.00,WUHU216DAVISVP2,2013-05-01 04:07:00,
2013-05-01 00:12:00,60.4,56.8,30.14,NNE,16,1.0,8.0,88,0.00,,,0.00,WUHU216DAVISVP2,2013-05-01 04:12:00,
2013-05-01 00:17:00,60.2,56.6,30.14,NNE,14,0.0,8.0,88,0.00,,,0.00,WUHU216DAVISVP2,2013-05-01 04:17:00,
2013-05-01 00:22:00,60.2,56.6,30.14,North,352,2.0,7.0,88,0.00,,,0.00,WUHU216DAVISVP2,2013-05-01 04:22:00,
2013-05-01 00:27:00,60.1,56.5,30.14,North,356,0.0,7.0,88,0.00,,,0.00,WUHU216DAVISVP2,2013-05-01 04:27:00,
2013-05-01 00:32:00,59.9,56.3,30.14,NNW,337,8.0,8.0,88,0.00,,,0.00,WUHU216DAVISVP2,2013-05-01 04:32:00,
2013-05-01 00:37:00,59.9,56.3,30.14,North,3,0.0,8.0,88,0.00,,,0.00,WUHU216DAVISVP2,2013-05-01 04:37:00,
2013-05-01 00:42:00,59.8,55.9,30.14,ENE,71,0.0,6.0,87,0.00,,,0.00,WUHU216DAVISVP2,2013-05-01 04:42:00,
2013-05-01 00:47:00,59.8,55.9,30.15,NE,38,1.0,4.0,87,0.00,,,0.00,WUHU216DAVISVP2,2013-05-01 04:47:00,
2013-05-01 00:52:00,59.8,55.9,30.15,NNE,21,0.0,2.0,87,0.00,,,0.00,WUHU216DAVISVP2,2013-05-01 04:52:00,
2013-05-01 00:57:00,59.6,55.7,30.15,NNE,14,0.0,2.0,87,0.00,,,0.00,WUHU216DAVISVP2,2013-05-01 04:57:00,
2013-05-01 01:02:00,59.6,55.7,30.15,NNE,14,0.0,2.0,87,0.00,,,0.00,WUHU216DAVISVP2,2013-05-01 05:02:00,
2013-05-01 01:07:00,59.6,55.7,30.15,NNE,14,0.0,1.0,87,0.00,,,0.00,WUHU216DAVISVP2,2013-05-01 05:07:00,
2013-05-01 01:11:00,59.6,55.7,30.15,NNE,18,0.0,2.0,87,0.00,,,0.00,WUHU216DAVISVP2,2013-05-01 05:11:00,
2013-05-01 01:16:00,59.6,55.7,30.15,NNE,18,0.0,4.0,87,0.00,,,0.00,WUHU216DAVISVP2,2013-05-01 05:16:00,
2013-05-01 01:21:00,59.6,55.7,30.15,NNE,16,0.0,4.0,87,0.00,,,0.00,WUHU216DAVISVP2,2013-05-01 05:21:00,
2013-05-01 01:26:00,59.6,55.7,30.15,North,0,0.0,4.0,87,0.00,,,0.00,WUHU216DAVISVP2,2013-05-01 05:26:00,
2013-05-01 01:31:00,59.8,55.9,30.14,NE,56,2.0,7.0,87,0.00,,,0.00,WUHU216DAVISVP2,2013-05-01 05:31:00,
2013-05-01 01:36:00,59.6,55.7,30.14,North,7,0.0,7.0,87,0.00,,,0.00,WUHU216DAVISVP2,2013-05-01 05:36:00,
2013-05-01 01:41:00,59.6,55.7,30.14,North,0,0.0,6.0,87,0.00,,,0.00,WUHU216DAVISVP2,2013-05-01 05:41:00,
2013-05-01 01:46:00,59.6,55.7,30.15,NNW,329,0.0,6.0,87,0.00,,,0.00,WUHU216DAVISVP2,2013-05-01 05:46:00,
2013-05-01 01:51:00,59.6,55.7,30.15,North,10,0.0,4.0,87,0.00,,,0.00,WUHU216DAVISVP2,2013-05-01 05:51:00,
2013-05-01 01:56:00,59.6,55.7,30.15,North,10,0.0,2.0,87,0.00,,,0.00,WUHU216DAVISVP2,2013-05-01 05:56:00,
2013-05-01 02:01:00,59.6,55.7,30.14,NNE,18,0.0,2.0,87,0.00,,,0.00,WUHU216DAVISVP2,2013-05-01 06:01:00,
2013-05-01 02:06:00,59.6,55.7,30.14,ESE,113,0.0,2.0,87,0.00,,,0.00,WUHU216DAVISVP2,2013-05-01 06:06:00,
2013-05-01 02:11:00,59.6,56.0,30.14,NNE,21,0.0,6.0,88,0.00,,,0.00,WUHU216DAVISVP2,2013-05-01 06:11:00,
2013-05-01 02:16:00,59.8,56.2,30.14,NNE,21,0.0,6.0,88,0.00,,,0.00,WUHU216DAVISVP2,2013-05-01 06:16:00,
2013-05-01 02:21:00,59.8,56.2,30.14,ENE,68,1.0,2.0,88,0.00,,,0.00,WUHU216DAVISVP2,2013-05-01 06:21:00,
2013-05-01 02:26:00,59.6,56.0,30.14,NNW,347,0.0,2.0,88,0.00,,,0.00,WUHU216DAVISVP2,2013-05-01 06:26:00,
2013-05-01 02:31:00,59.6,56.0,30.14,NNW,347,0.0,2.0,88,0.00,,,0.00,WUHU216DAVISVP2,2013-05-01 06:31:00,
2013-05-01 02:36:00,59.6,56.0,30.14,NE,54,4.0,6.0,88,0.00,,,0.00,WUHU216DAVISVP2,2013-05-01 06:36:00,
2013-05-01 02:41:00,59.6,56.0,30.14,North,0,0.0,6.0,88,0.00,,,0.00,WUHU216DAVISVP2,2013-05-01 06:41:00,
2013-05-01 02:46:00,59.6,56.0,30.14,North,0,0.0,4.0,88,0.00,,,0.00,WUHU216DAVISVP2,2013-05-01 06:46:00,
2013-05-01 02:51:00,59.6,56.0,30.14,North,0,0.0,1.0,88,0.00,,,0.00,WUHU216DAVISVP2,2013-05-01 06:51:00,
2013-05-01 02:56:00,59.6,56.0,30.14,North,0,0.0,2.0,88,0.00,,,0.00,WUHU216DAVISVP2,2013-05-01 06:56:00,
2013-05-01 03:01:00,59.8,56.2,30.13,NNE,13,0.0,6.0,88,0.00,,,0.00,WUHU216DAVISVP2,2013-05-01 07:01:00,
2013-05-01 03:06:00,59.8,56.2,30.13,NNE,13,0.0,6.0,88,0.00,,,0.00,WUHU216DAVISVP2,2013-05-01 07:06:00,
2013-05-01 03:12:00,59.8,56.2,30.13,North,11,4.0,4.0,88,0.00,,,0.00,WUHU216DAVISVP2,2013-05-01 07:12:00,
2013-05-01 03:17:00,59.6,56.0,30.13,NNW,337,0.0,4.0,88,0.00,,,0.00,WUHU216DAVISVP2,2013-05-01 07:17:00,
2013-05-01 03:22:00,59.6,56.0,30.13,North,3,2.0,2.0,88,0.00,,,0.00,WUHU216DAVISVP2,2013-05-01 07:22:00,
2013-05-01 03:27:00,59.8,56.2,30.13,North,0,1.0,2.0,88,0.00,,,0.00,WUHU216DAVISVP2,2013-05-01 07:27:00,
2013-05-01 03:32:00,59.6,56.0,30.14,WNW,299,4.0,6.0,88,0.00,,,0.00,WUHU216DAVISVP2,2013-05-01 07:32:00,
2013-05-01 03:37:00,59.6,56.0,30.14,North,0,1.0,6.0,88,0.00,,,0.00,WUHU216DAVISVP2,2013-05-01 07:37:00,
2013-05-01 03:42:00,59.8,56.2,30.14,North,3,2.0,6.0,88,0.00,,,0.00,WUHU216DAVISVP2,2013-05-01 07:42:00,
2013-05-01 03:47:00,59.8,56.2,30.14,North,3,0.0,4.0,88,0.00,,,0.00,WUHU216DAVISVP2,2013-05-01 07:47:00,
2013-05-01 03:52:00,59.6,56.0,30.14,North,0,0.0,4.0,88,0.00,,,0.00,WUHU216DAVISVP2,2013-05-01 07:52:00,
2013-05-01 03:57:00,59.6,56.0,30.14,North,0,0.0,4.0,88,0.00,,,0.00,WUHU216DAVISVP2,2013-05-01 07:57:00,
2013-05-01 04:02:00,59.8,56.2,30.14,North,353,0.0,6.0,88,0.00,,,0.00,WUHU216DAVISVP2,2013-05-01 08:02:00,
2013-05-01 04:07:00,59.8,56.2,30.14,North,0,0.0,6.0,88,0.00,,,0.00,WUHU216DAVISVP2,2013-05-01 08:07:00,
2013-05-01 04:12:00,59.8,56.2,30.14,NW,322,0.0,4.0,88,0.00,,,0.00,WUHU216DAVISVP2,2013-05-01 08:12:00,
2013-05-01 04:17:00,59.6,56.0,30.14,NNW,346,0.0,6.0,88,0.00,,,0.00,WUHU216DAVISVP2,2013-05-01 08:17:00,
2013-05-01 04:22:00,59.8,56.2,30.14,North,353,0.0,6.0,88,0.00,,,0.00,WUHU216DAVISVP2,2013-05-01 08:22:00,
2013-05-01 04:27:00,59.8,56.2,30.14,NNW,328,0.0,2.0,88,0.00,,,0.00,WUHU216DAVISVP2,2013-05-01 08:27:00,
2013-05-01 04:32:00,59.8,56.6,30.14,NNW,342,4.0,4.0,89,0.00,,,0.00,WUHU216DAVISVP2,2013-05-01 08:32:00,
2013-05-01 04:37:00,59.8,56.5,30.14,North,353,0.0,4.0,89,0.00,,,0.00,WUHU216DAVISVP2,2013-05-01 08:37:00,
2013-05-01 04:42:00,59.8,56.5,30.14,North,0,0.0,7.0,89,0.00,,,0.00,WUHU216DAVISVP2,2013-05-01 08:42:00,
2013-05-01 04:47:00,59.8,56.5,30.14,North,356,0.0,7.0,89,0.00,,,0.00,WUHU216DAVISVP2,2013-05-01 08:47:00,
2013-05-01 04:52:00,59.8,56.5,30.14,NW,306,0.0,6.0,89,0.00,,,0.00,WUHU216DAVISVP2,2013-05-01 08:52:00,
2013-05-01 04:57:00,59.9,56.6,30.14,ENE,66,0.0,4.0,89,0.00,,,0.00,WUHU216DAVISVP2,2013-05-01 08:57:00,
2013-05-01 05:02:00,59.9,56.6,30.14,NE,55,0.0,4.0,89,0.00,,,0.00,WUHU216DAVISVP2,2013-05-01 09:02:00,
2013-05-01 05:07:00,59.9,56.6,30.14,NNW,344,0.0,4.0,89,0.00,,,0.00,WUHU216DAVISVP2,2013-05-01 09:07:00,
2013-05-01 05:12:00,59.9,56.6,30.14,NNE,25,0.0,6.0,89,0.00,,,0.00,WUHU216DAVISVP2,2013-05-01 09:12:00,
2013-05-01 05:17:00,60.1,56.8,30.14,NNE,18,0.0,6.0,89,0.00,,,0.00,WUHU216DAVISVP2,2013-05-01 09:17:00,
2013-05-01 05:22:00,59.9,56.6,30.14,North,349,0.0,6.0,89,0.00,,,0.00,WUHU216DAVISVP2,2013-05-01 09:22:00,
2013-05-01 05:27:00,59.9,56.6,30.14,North,352,0.0,6.0,89,0.00,,,0.00,WUHU216DAVISVP2,2013-05-01 09:27:00,
2013-05-01 05:32:00,59.9,56.6,30.14,North,0,0.0,6.0,89,0.00,,,0.00,WUHU216DAVISVP2,2013-05-01 09:32:00,
2013-05-01 05:37:00,60.1,56.8,30.14,NNE,17,0.0,4.0,89,0.00,,,0.00,WUHU216DAVISVP2,2013-05-01 09:37:00,
2013-05-01 05:42:00,60.1,56.8,30.14,North,0,0.0,6.0,89,0.00,,,0.00,WUHU216DAVISVP2,2013-05-01 09:42:00,
2013-05-01 05:48:00,60.1,56.8,30.14,North,359,4.0,7.0,89,0.00,,,0.00,WUHU216DAVISVP2,2013-05-01 09:48:00,
2013-05-01 05:53:00,60.1,56.8,30.14,ENE,75,1.0,7.0,89,0.00,,,0.00,WUHU216DAVISVP2,2013-05-01 09:53:00,
2013-05-01 05:58:00,59.9,56.6,30.14,North,0,0.0,6.0,89,0.00,,,0.00,WUHU216DAVISVP2,2013-05-01 09:58:00,
2013-05-01 06:03:00,60.1,56.8,30.15,NE,54,0.0,6.0,89,0.00,,,0.00,WUHU216DAVISVP2,2013-05-01 10:03:00,
2013-05-01 06:08:00,59.9,56.6,30.15,NW,323,0.0,4.0,89,0.00,,,0.00,WUHU216DAVISVP2,2013-05-01 10:08:00,
2013-05-01 06:13:00,60.2,56.9,30.15,NE,48,0.0,4.0,89,0.00,,,0.00,WUHU216DAVISVP2,2013-05-01 10:13:00,
2013-05-01 06:18:00,60.2,57.2,30.16,North,6,0.0,4.0,90,0.00,,,0.00,WUHU216DAVISVP2,2013-05-01 10:18:00,
2013-05-01 06:23:00,60.1,57.1,30.16,NNW,339,0.0,6.0,90,0.00,,,0.00,WUHU216DAVISVP2,2013-05-01 10:23:00,
2013-05-01 06:28:00,59.9,56.9,30.16,ENE,65,0.0,6.0,90,0.00,,,0.00,WUHU216DAVISVP2,2013-05-01 10:28:00,
2013-05-01 06:33:00,60.2,57.3,30.16,NNE,20,1.0,4.0,90,0.00,,,0.00,WUHU216DAVISVP2,2013-05-01 10:33:00,
2013-05-01 06:38:00,60.2,57.3,30.16,East,89,1.0,6.0,90,0.00,,,0.00,WUHU216DAVISVP2,2013-05-01 10:38:00,
2013-05-01 06:43:00,60.2,57.3,30.16,NNE,14,1.0,7.0,90,0.00,,,0.00,WUHU216DAVISVP2,2013-05-01 10:43:00,
2013-05-01 06:48:00,60.2,57.3,30.17,NE,35,0.0,7.0,90,0.00,,,0.00,WUHU216DAVISVP2,2013-05-01 10:48:00,
2013-05-01 06:53:00,60.1,57.2,30.17,NW,323,0.0,7.0,90,0.00,,,0.00,WUHU216DAVISVP2,2013-05-01 10:53:00,
2013-05-01 06:58:00,60.1,57.1,30.17,WNW,292,0.0,7.0,90,0.00,,,0.00,WUHU216DAVISVP2,2013-05-01 10:58:00,
2013-05-01 07:03:00,60.2,57.2,30.18,North,0,1.0,6.0,90,0.00,,,0.00,WUHU216DAVISVP2,2013-05-01 11:03:00,
2013-05-01 07:08:00,60.1,57.1,30.18,East,99,0.0,7.0,90,0.00,,,0.00,WUHU216DAVISVP2,2013-05-01 11:08:00,
2013-05-01 07:13:00,59.9,56.9,30.18,West,270,1.0,7.0,90,0.00,,,0.00,WUHU216DAVISVP2,2013-05-01 11:13:00,
2013-05-01 07:18:00,60.1,57.1,30.19,NNW,329,2.0,2.0,90,0.00,,,0.00,WUHU216DAVISVP2,2013-05-01 11:18:00,
2013-05-01 07:23:00,59.9,56.9,30.19,North,0,0.0,4.0,90,0.00,,,0.00,WUHU216DAVISVP2,2013-05-01 11:23:00,
2013-05-01 07:28:00,59.9,56.9,30.19,NNW,332,0.0,4.0,90,0.00,,,0.00,WUHU216DAVISVP2,2013-05-01 11:28:00,
2013-05-01 07:33:00,59.9,56.9,30.19,East,99,0.0,2.0,90,0.00,,,0.00,WUHU216DAVISVP2,2013-05-01 11:33:00,
2013-05-01 07:38:00,59.9,56.9,30.19,NW,313,0.0,4.0,90,0.00,,,0.00,WUHU216DAVISVP2,2013-05-01 11:38:00,
2013-05-01 07:43:00,60.1,57.1,30.19,NNE,14,0.0,4.0,90,0.00,,,0.00,WUHU216DAVISVP2,2013-05-01 11:43:00,
2013-05-01 07:48:00,59.9,56.9,30.20,NNW,340,2.0,6.0,90,0.00,,,0.00,WUHU216DAVISVP2,2013-05-01 11:48:00,
2013-05-01 07:53:00,59.9,56.9,30.20,North,0,4.0,6.0,90,0.00,,,0.00,WUHU216DAVISVP2,2013-05-01 11:53:00,
2013-05-01 07:58:00,59.8,56.8,30.20,NW,316,2.0,4.0,90,0.00,,,0.00,WUHU216DAVISVP2,2013-05-01 11:58:00,
2013-05-01 08:03:00,59.9,56.9,30.20,NNE,20,0.0,4.0,90,0.00,,,0.00,WUHU216DAVISVP2,2013-05-01 12:03:00,
2013-05-01 08:08:00,59.8,56.8,30.20,ENE,76,0.0,4.0,90,0.00,,,0.00,WUHU216DAVISVP2,2013-05-01 12:08:00,
2013-05-01 08:13:00,59.6,56.6,30.20,NNW,339,0.0,7.0,90,0.00,,,0.00,WUHU216DAVISVP2,2013-05-01 12:13:00,
2013-05-01 08:18:00,59.9,56.9,30.20,North,0,0.0,7.0,90,0.00,,,0.00,WUHU216DAVISVP2,2013-05-01 12:18:00,
2013-05-01 08:23:00,59.8,56.8,30.20,NE,52,1.0,7.0,90,0.00,,,0.00,WUHU216DAVISVP2,2013-05-01 12:23:00,
2013-05-01 08:28:00,59.8,56.8,30.20,NNE,21,0.0,7.0,90,0.00,,,0.00,WUHU216DAVISVP2,2013-05-01 12:28:00,
2013-05-01 08:33:00,59.6,56.6,30.21,NW,315,2.0,7.0,90,0.00,,,0.00,WUHU216DAVISVP2,2013-05-01 12:33:00,
2013-05-01 08:38:00,59.6,56.6,30.21,East,93,0.0,7.0,90,0.00,,,0.00,WUHU216DAVISVP2,2013-05-01 12:38:00,
2013-05-01 08:43:00,59.8,56.8,30.21,ENE,76,0.0,7.0,90,0.00,,,0.00,WUHU216DAVISVP2,2013-05-01 12:43:00,
2013-05-01 08:48:00,59.6,56.7,30.21,North,0,0.0,6.0,90,0.00,,,0.00,WUHU216DAVISVP2,2013-05-01 12:48:00,
2013-05-01 08:53:00,59.8,56.9,30.21,ESE,121,0.0,6.0,90,0.00,,,0.00,WUHU216DAVISVP2,2013-05-01 12:53:00,
2013-05-01 08:58:00,59.5,56.6,30.21,North,359,0.0,7.0,90,0.00,,,0.00,WUHU216DAVISVP2,2013-05-01 12:58:00,
2013-05-01 09:03:00,59.5,56.6,30.22,North,0,7.0,7.0,90,0.00,,,0.00,WUHU216DAVISVP2,2013-05-01 13:03:00,
2013-05-01 09:08:00,59.2,56.3,30.22,ESE,109,0.0,7.0,90,0.00,,,0.00,WUHU216DAVISVP2,2013-05-01 13:08:00,
2013-05-01 09:13:00,59.3,56.4,30.22,North,1,0.0,7.0,90,0.00,,,0.00,WUHU216DAVISVP2,2013-05-01 13:13:00,
2013-05-01 09:18:00,59.3,56.4,30.22,ENE,76,0.0,2.0,90,0.00,,,0.00,WUHU216DAVISVP2,2013-05-01 13:18:00,
2013-05-01 09:23:00,59.3,56.4,30.22,North,6,0.0,7.0,90,0.00,,,0.00,WUHU216DAVISVP2,2013-05-01 13:23:00,
2013-05-01 09:28:00,59.3,56.4,30.22,NE,44,0.0,7.0,90,0.00,,,0.00,WUHU216DAVISVP2,2013-05-01 13:28:00,
2013-05-01 09:33:00,59.3,56.4,30.22,NW,308,0.0,4.0,90,0.00,,,0.00,WUHU216DAVISVP2,2013-05-01 13:33:00,
2013-05-01 09:38:00,59.2,56.0,30.22,East,92,2.0,4.0,89,0.00,,,0.00,WUHU216DAVISVP2,2013-05-01 13:38:00,
2013-05-01 09:43:00,59.2,56.3,30.22,NNW,335,1.0,4.0,90,0.00,,,0.00,WUHU216DAVISVP2,2013-05-01 13:43:00,
2013-05-01 09:48:00,59.2,55.9,30.23,ESE,106,0.0,10.0,89,0.00,,,0.00,WUHU216DAVISVP2,2013-05-01 13:48:00,
2013-05-01 09:53:00,59.2,56.2,30.23,North,0,0.0,10.0,90,0.00,,,0.00,WUHU216DAVISVP2,2013-05-01 13:53:00,
2013-05-01 09:58:00,59.2,56.2,30.23,North,349,2.0,7.0,90,0.00,,,0.00,WUHU216DAVISVP2,2013-05-01 13:58:00,
2013-05-01 10:03:00,59.2,56.2,30.23,NNW,329,1.0,7.0,90,0.00,,,0.00,WUHU216DAVISVP2,2013-05-01 14:03:00,
2013-05-01 10:08:00,59.3,56.3,30.23,SE,124,1.0,7.0,90,0.00,,,0.00,WUHU216DAVISVP2,2013-05-01 14:08:00,
2013-05-01 10:13:00,59.3,56.3,30.23,North,353,1.0,7.0,90,0.00,,,0.00,WUHU216DAVISVP2,2013-05-01 14:13:00,
2013-05-01 10:18:00,59.5,56.6,30.24,East,92,0.0,6.0,90,0.00,,,0.00,WUHU216DAVISVP2,2013-05-01 14:18:00,
2013-05-01 10:23:00,59.5,56.6,30.24,NE,40,0.0,8.0,90,0.00,,,0.00,WUHU216DAVISVP2,2013-05-01 14:23:00,
2013-05-01 10:28:00,59.5,56.6,30.24,North,356,1.0,8.0,90,0.00,,,0.00,WUHU216DAVISVP2,2013-05-01 14:28:00,
2013-05-01 10:33:00,59.5,56.6,30.24,North,353,1.0,6.0,90,0.00,,,0.00,WUHU216DAVISVP2,2013-05-01 14:33:00,
2013-05-01 10:38:00,59.8,56.9,30.24,North,0,1.0,4.0,90,0.00,,,0.00,WUHU216DAVISVP2,2013-05-01 14:38:00,
2013-05-01 10:43:00,59.6,56.7,30.24,NNW,344,1.0,8.0,90,0.00,,,0.00,WUHU216DAVISVP2,2013-05-01 14:43:00,
2013-05-01 10:48:00,59.8,56.9,30.24,NNE,24,0.0,8.0,90,0.00,,,0.00,WUHU216DAVISVP2,2013-05-01 14:48:00,
2013-05-01 10:53:00,59.8,56.9,30.24,North,353,1.0,6.0,90,0.00,,,0.00,WUHU216DAVISVP2,2013-05-01 14:53:00,
2013-05-01 10:58:00,59.9,57.0,30.24,NE,34,0.0,1.0,90,0.00,,,0.00,WUHU216DAVISVP2,2013-05-01 14:58:00,
2013-05-01 11:03:00,60.1,57.2,30.24,NE,34,0.0,1.0,90,0.00,,,0.00,WUHU216DAVISVP2,2013-05-01 15:03:00,
2013-05-01 11:08:00,59.9,57.0,30.24,SW,233,0.0,4.0,90,0.00,,,0.00,WUHU216DAVISVP2,2013-05-01 15:08:00,
2013-05-01 11:13:00,60.1,57.2,30.24,NNE,13,0.0,4.0,90,0.00,,,0.00,WUHU216DAVISVP2,2013-05-01 15:13:00,
2013-05-01 11:18:00,60.1,57.2,30.24,North,354,0.0,2.0,90,0.00,,,0.00,WUHU216DAVISVP2,2013-05-01 15:18:00,
2013-05-01 11:23:00,60.1,57.2,30.24,North,0,1.0,4.0,90,0.00,,,0.00,WUHU216DAVISVP2,2013-05-01 15:23:00,
2013-05-01 11:28:00,60.1,57.2,30.24,NNE,13,0.0,7.0,90,0.00,,,0.00,WUHU216DAVISVP2,2013-05-01 15:28:00,
2013-05-01 11:33:00,60.1,57.2,30.24,NNE,17,0.0,7.0,90,0.00,,,0.00,WUHU216DAVISVP2,2013-05-01 15:33:00,
2013-05-01 11:38:00,60.2,57.3,30.24,NE,48,0.0,6.0,90,0.00,,,0.00,WUHU216DAVISVP2,2013-05-01 15:38:00,
2013-05-01 11:43:00,60.1,57.2,30.24,East,97,2.0,8.0,90,0.00,,,0.00,WUHU216DAVISVP2,2013-05-01 15:43:00,
2013-05-01 11:48:00,60.1,57.2,30.24,ENE,65,0.0,8.0,90,0.00,,,0.00,WUHU216DAVISVP2,2013-05-01 15:48:00,
2013-05-01 11:53:00,60.2,57.3,30.24,ESE,113,0.0,7.0,90,0.00,,,0.00,WUHU216DAVISVP2,2013-05-01 15:53:00,
2013-05-01 11:58:00,60.1,57.1,30.24,ENE,58,0.0,7.0,90,0.00,,,0.00,WUHU216DAVISVP2,2013-05-01 15:58:00,
2013-05-01 12:03:00,60.1,57.1,30.24,NNW,336,0.0,7.0,90,0.00,,,0.00,WUHU216DAVISVP2,2013-05-01 16:03:00,
2013-05-01 12:08:00,60.4,57.4,30.24,ESE,123,0.0,7.0,90,0.00,,,0.00,WUHU216DAVISVP2,2013-05-01 16:08:00,
2013-05-01 12:13:00,60.2,57.2,30.24,North,349,0.0,7.0,90,0.00,,,0.00,WUHU216DAVISVP2,2013-05-01 16:13:00,
2013-05-01 12:18:00,60.2,56.9,30.24,North,1,7.0,7.0,89,0.00,,,0.00,WUHU216DAVISVP2,2013-05-01 16:18:00,
2013-05-01 12:23:00,60.2,56.9,30.24,ESE,102,4.0,7.0,89,0.00,,,0.00,WUHU216DAVISVP2,2013-05-01 16:23:00,
2013-05-01 12:28:00,60.2,56.9,30.24,NW,312,0.0,7.0,89,0.00,,,0.00,WUHU216DAVISVP2,2013-05-01 16:28:00,
2013-05-01 12:33:00,60.5,57.2,30.24,East,90,0.0,8.0,89,0.00,,,0.00,WUHU216DAVISVP2,2013-05-01 16:33:00,
2013-05-01 12:38:00,60.9,57.6,30.24,East,85,0.0,8.0,89,0.00,,,0.00,WUHU216DAVISVP2,2013-05-01 16:38:00,
2013-05-01 12:44:00,60.7,57.4,30.24,SSW,200,0.0,2.0,89,0.00,,,0.00,WUHU216DAVISVP2,2013-05-01 16:44:00,
2013-05-01 12:49:00,60.5,57.2,30.24,North,350,0.0,6.0,89,0.00,,,0.00,WUHU216DAVISVP2,2013-05-01 16:49:00,
2013-05-01 12:54:00,60.5,57.2,30.24,North,0,0.0,6.0,89,0.00,,,0.00,WUHU216DAVISVP2,2013-05-01 16:54:00,
2013-05-01 12:59:00,60.7,57.4,30.24,ENE,72,0.0,4.0,89,0.00,,,0.00,WUHU216DAVISVP2,2013-05-01 16:59:00,
2013-05-01 13:04:00,60.9,57.6,30.24,North,11,1.0,2.0,89,0.00,,,0.00,WUHU216DAVISVP2,2013-05-01 17:04:00,
2013-05-01 13:09:00,60.7,57.4,30.24,East,80,0.0,8.0,89,0.00,,,0.00,WUHU216DAVISVP2,2013-05-01 17:09:00,
2013-05-01 13:14:00,60.7,57.1,30.24,ENE,68,0.0,8.0,88,0.00,,,0.00,WUHU216DAVISVP2,2013-05-01 17:14:00,
2013-05-01 13:19:00,60.9,57.6,30.24,ESE,121,2.0,2.0,89,0.00,,,0.00,WUHU216DAVISVP2,2013-05-01 17:19:00,
2013-05-01 13:24:00,60.7,57.1,30.24,NNW,337,2.0,9.0,88,0.00,,,0.00,WUHU216DAVISVP2,2013-05-01 17:24:00,
2013-05-01 13:29:00,60.9,57.3,30.25,NE,44,1.0,9.0,88,0.00,,,0.00,WUHU216DAVISVP2,2013-05-01 17:29:00,
2013-05-01 13:34:00,60.9,57.3,30.25,NE,49,4.0,8.0,88,0.00,,,0.00,WUHU216DAVISVP2,2013-05-01 17:34:00,
2013-05-01 13:39:00,60.9,57.3,30.25,East,92,0.0,8.0,88,0.00,,,0.00,WUHU216DAVISVP2,2013-05-01 17:39:00,
2013-05-01 13:44:00,61.0,57.7,30.25,East,96,0.0,7.0,89,0.00,,,0.00,WUHU216DAVISVP2,2013-05-01 17:44:00,
2013-05-01 13:49:00,61.0,57.7,30.25,ENE,69,0.0,4.0,89,0.00,,,0.00,WUHU216DAVISVP2,2013-05-01 17:49:00,
2013-05-01 13:54:00,61.3,58.0,30.25,NE,48,0.0,6.0,89,0.00,,,0.00,WUHU216DAVISVP2,2013-05-01 17:54:00,
2013-05-01 13:59:00,61.3,58.0,30.25,ENE,71,0.0,6.0,89,0.00,,,0.00,WUHU216DAVISVP2,2013-05-01 17:59:00,
2013-05-01 14:04:00,61.3,58.0,30.25,SE,131,0.0,1.0,89,0.00,,,0.00,WUHU216DAVISVP2,2013-05-01 18:04:00,
2013-05-01 14:09:00,61.5,58.2,30.25,NNE,31,0.0,1.0,89,0.00,,,0.00,WUHU216DAVISVP2,2013-05-01 18:09:00,
2013-05-01 14:14:00,61.5,58.2,30.25,NNW,335,0.0,2.0,89,0.00,,,0.00,WUHU216DAVISVP2,2013-05-01 18:14:00,
2013-05-01 14:19:00,61.6,58.3,30.25,NNE,14,0.0,2.0,89,0.00,,,0.00,WUHU216DAVISVP2,2013-05-01 18:19:00,
2013-05-01 14:24:00,61.8,58.8,30.25,ESE,104,0.0,2.0,90,0.00,,,0.00,WUHU216DAVISVP2,2013-05-01 18:24:00,
2013-05-01 14:31:00,61.8,58.8,30.25,East,100,6.0,7.0,90,0.01,,,0.01,WUHU216DAVISVP2,2013-05-01 18:31:00,
2013-05-01 14:36:00,61.6,58.3,30.25,SSE,150,0.0,7.0,89,0.01,,,0.01,WUHU216DAVISVP2,2013-05-01 18:36:00,
2013-05-01 14:41:00,61.6,58.6,30.25,East,83,0.0,7.0,90,0.01,,,0.01,WUHU216DAVISVP2,2013-05-01 18:41:00,
2013-05-01 14:46:00,62.0,59.0,30.24,ENE,61,0.0,7.0,90,0.01,,,0.01,WUHU216DAVISVP2,2013-05-01 18:46:00,
2013-05-01 14:51:00,62.1,59.1,30.24,ENE,61,0.0,9.0,90,0.01,,,0.01,WUHU216DAVISVP2,2013-05-01 18:51:00,
2013-05-01 14:56:00,62.1,59.1,30.24,North,357,0.0,9.0,90,0.01,,,0.01,WUHU216DAVISVP2,2013-05-01 18:56:00,
2013-05-01 15:01:00,62.0,59.0,30.24,East,92,0.0,6.0,90,0.01,,,0.01,WUHU216DAVISVP2,2013-05-01 19:01:00,
2013-05-01 15:06:00,61.8,58.5,30.24,North,0,0.0,7.0,89,0.01,,,0.01,WUHU216DAVISVP2,2013-05-01 19:06:00,
2013-05-01 15:11:00,61.6,58.6,30.24,East,85,0.0,7.0,90,0.01,,,0.01,WUHU216DAVISVP2,2013-05-01 19:11:00,
2013-05-01 15:16:00,61.5,58.5,30.23,ENE,71,0.0,7.0,90,0.01,,,0.01,WUHU216DAVISVP2,2013-05-01 19:16:00,
2013-05-01 15:20:00,61.3,58.3,30.23,East,83,2.0,7.0,90,0.01,,,0.01,WUHU216DAVISVP2,2013-05-01 19:20:00,
2013-05-01 15:25:00,61.3,58.3,30.23,ENE,68,0.0,7.0,90,0.01,,,0.01,WUHU216DAVISVP2,2013-05-01 19:25:00,
2013-05-01 15:30:00,61.3,58.3,30.23,NNE,24,0.0,8.0,90,0.00,,,0.01,WUHU216DAVISVP2,2013-05-01 19:30:00,
2013-05-01 15:35:00,61.3,58.3,30.23,SSE,162,4.0,9.0,90,0.00,,,0.01,WUHU216DAVISVP2,2013-05-01 19:35:00,
2013-05-01 15:40:00,61.3,58.3,30.23,ENE,64,0.0,9.0,90,0.00,,,0.01,WUHU216DAVISVP2,2013-05-01 19:40:00,
2013-05-01 15:45:00,61.0,57.7,30.23,NNE,25,4.0,9.0,89,0.00,,,0.01,WUHU216DAVISVP2,2013-05-01 19:45:00,
2013-05-01 15:50:00,61.0,57.7,30.23,East,100,6.0,8.0,89,0.00,,,0.01,WUHU216DAVISVP2,2013-05-01 19:50:00,
2013-05-01 15:55:00,60.9,57.6,30.23,East,89,1.0,7.0,89,0.00,,,0.01,WUHU216DAVISVP2,2013-05-01 19:55:00,
2013-05-01 16:00:00,60.5,57.2,30.24,North,353,1.0,7.0,89,0.00,,,0.01,WUHU216DAVISVP2,2013-05-01 20:00:00,
2013-05-01 16:06:00,60.2,56.9,30.24,North,354,0.0,8.0,89,0.00,,,0.01,WUHU216DAVISVP2,2013-05-01 20:06:00,
2013-05-01 16:11:00,59.9,56.6,30.24,ENE,73,2.0,9.0,89,0.00,,,0.01,WUHU216DAVISVP2,2013-05-01 20:11:00,
2013-05-01 16:16:00,59.6,56.4,30.24,ENE,59,2.0,11.0,89,0.00,,,0.01,WUHU216DAVISVP2,2013-05-01 20:16:00,
2013-05-01 16:21:00,59.5,56.6,30.24,ENE,71,4.0,11.0,90,0.00,,,0.01,WUHU216DAVISVP2,2013-05-01 20:21:00,
2013-05-01 16:26:00,59.5,56.6,30.24,East,85,2.0,6.0,90,0.00,,,0.01,WUHU216DAVISVP2,2013-05-01 20:26:00,
2013-05-01 16:31:00,59.5,56.6,30.24,ENE,69,1.0,7.0,90,0.00,,,0.01,WUHU216DAVISVP2,2013-05-01 20:31:00,
2013-05-01 16:36:00,59.3,56.4,30.24,ESE,112,1.0,7.0,90,0.00,,,0.01,WUHU216DAVISVP2,2013-05-01 20:36:00,
2013-05-01 16:41:00,59.3,56.4,30.24,ENE,78,0.0,8.0,90,0.00,,,0.01,WUHU216DAVISVP2,2013-05-01 20:41:00,
2013-05-01 16:46:00,59.5,56.6,30.25,East,86,0.0,10.0,90,0.00,,,0.01,WUHU216DAVISVP2,2013-05-01 20:46:00,
2013-05-01 16:51:00,59.5,56.6,30.25,ENE,78,0.0,10.0,90,0.00,,,0.01,WUHU216DAVISVP2,2013-05-01 20:51:00,
2013-05-01 16:56:00,59.3,56.0,30.25,East,93,0.0,7.0,89,0.00,,,0.01,WUHU216DAVISVP2,2013-05-01 20:56:00,
2013-05-01 17:01:00,59.3,56.4,30.25,North,359,0.0,7.0,90,0.00,,,0.01,WUHU216DAVISVP2,2013-05-01 21:01:00,
2013-05-01 17:06:00,59.3,56.4,30.25,North,353,2.0,6.0,90,0.00,,,0.01,WUHU216DAVISVP2,2013-05-01 21:06:00,
2013-05-01 17:11:00,59.5,56.5,30.25,ENE,75,1.0,7.0,90,0.00,,,0.01,WUHU216DAVISVP2,2013-05-01 21:11:00,
2013-05-01 17:16:00,59.5,56.6,30.25,ENE,75,0.0,7.0,90,0.00,,,0.01,WUHU216DAVISVP2,2013-05-01 21:16:00,
2013-05-01 17:21:00,59.6,56.6,30.25,East,95,4.0,6.0,90,0.00,,,0.01,WUHU216DAVISVP2,2013-05-01 21:21:00,
2013-05-01 17:26:00,59.6,56.3,30.25,SE,130,0.0,7.0,89,0.00,,,0.01,WUHU216DAVISVP2,2013-05-01 21:26:00,
2013-05-01 17:31:00,59.5,56.2,30.25,East,82,0.0,7.0,89,0.00,,,0.01,WUHU216DAVISVP2,2013-05-01 21:31:00,
2013-05-01 17:36:00,59.8,56.5,30.25,NE,44,0.0,6.0,89,0.00,,,0.01,WUHU216DAVISVP2,2013-05-01 21:36:00,
2013-05-01 17:41:00,59.8,56.5,30.25,ESE,102,1.0,6.0,89,0.00,,,0.01,WUHU216DAVISVP2,2013-05-01 21:41:00,
2013-05-01 17:46:00,59.6,56.3,30.25,North,356,0.0,4.0,89,0.00,,,0.01,WUHU216DAVISVP2,2013-05-01 21:46:00,
2013-05-01 17:51:00,59.9,56.6,30.25,NNE,32,0.0,4.0,89,0.00,,,0.01,WUHU216DAVISVP2,2013-05-01 21:51:00,
2013-05-01 17:56:00,59.9,56.9,30.25,NNE,32,0.0,1.0,90,0.00,,,0.01,WUHU216DAVISVP2,2013-05-01 21:56:00,
2013-05-01 18:01:00,59.8,56.6,30.25,East,85,1.0,9.0,89,0.00,,,0.01,WUHU216DAVISVP2,2013-05-01 22:01:00,
2013-05-01 18:06:00,59.8,56.8,30.25,NE,42,0.0,9.0,90,0.00,,,0.01,WUHU216DAVISVP2,2013-05-01 22:06:00,
2013-05-01 18:11:00,59.8,56.8,30.25,ENE,72,0.0,7.0,90,0.00,,,0.01,WUHU216DAVISVP2,2013-05-01 22:11:00,
2013-05-01 18:16:00,59.8,56.8,30.25,ENE,65,0.0,2.0,90,0.00,,,0.01,WUHU216DAVISVP2,2013-05-01 22:16:00,
2013-05-01 18:21:00,59.6,56.6,30.25,ESE,106,0.0,6.0,90,0.00,,,0.01,WUHU216DAVISVP2,2013-05-01 22:21:00,
2013-05-01 18:26:00,59.6,56.6,30.25,ENE,69,0.0,7.0,90,0.00,,,0.01,WUHU216DAVISVP2,2013-05-01 22:26:00,
2013-05-01 18:31:00,59.6,56.6,30.25,ENE,61,0.0,7.0,90,0.00,,,0.01,WUHU216DAVISVP2,2013-05-01 22:31:00,
2013-05-01 18:36:00,59.6,56.6,30.25,NW,308,0.0,6.0,90,0.00,,,0.01,WUHU216DAVISVP2,2013-05-01 22:36:00,
2013-05-01 18:41:00,59.6,56.6,30.25,WNW,295,0.0,6.0,90,0.00,,,0.01,WUHU216DAVISVP2,2013-05-01 22:41:00,
2013-05-01 18:46:00,59.8,56.8,30.25,NE,47,0.0,7.0,90,0.00,,,0.01,WUHU216DAVISVP2,2013-05-01 22:46:00,
2013-05-01 18:51:00,59.8,56.8,30.25,North,8,0.0,7.0,90,0.00,,,0.01,WUHU216DAVISVP2,2013-05-01 22:51:00,
2013-05-01 18:56:00,59.8,56.8,30.25,East,99,0.0,6.0,90,0.00,,,0.01,WUHU216DAVISVP2,2013-05-01 22:56:00,
2013-05-01 19:01:00,59.8,56.8,30.24,East,90,0.0,7.0,90,0.00,,,0.01,WUHU216DAVISVP2,2013-05-01 23:01:00,
2013-05-01 19:06:00,59.9,56.9,30.24,East,79,2.0,7.0,90,0.00,,,0.01,WUHU216DAVISVP2,2013-05-01 23:06:00,
2013-05-01 19:11:00,59.8,56.8,30.24,East,83,0.0,8.0,90,0.00,,,0.01,WUHU216DAVISVP2,2013-05-01 23:11:00,
2013-05-01 19:16:00,59.9,56.9,30.25,East,83,0.0,8.0,90,0.00,,,0.01,WUHU216DAVISVP2,2013-05-01 23:16:00,
2013-05-01 19:21:00,59.9,56.9,30.25,NNE,14,0.0,6.0,90,0.00,,,0.01,WUHU216DAVISVP2,2013-05-01 23:21:00,
2013-05-01 19:26:00,59.9,56.9,30.25,North,353,0.0,7.0,90,0.00,,,0.01,WUHU216DAVISVP2,2013-05-01 23:26:00,
2013-05-01 19:31:00,59.9,56.9,30.25,North,0,0.0,7.0,90,0.00,,,0.01,WUHU216DAVISVP2,2013-05-01 23:31:00,
2013-05-01 19:36:00,59.9,56.6,30.25,ENE,68,0.0,6.0,89,0.00,,,0.01,WUHU216DAVISVP2,2013-05-01 23:36:00,
2013-05-01 19:41:00,59.9,56.6,30.25,East,99,1.0,6.0,89,0.00,,,0.01,WUHU216DAVISVP2,2013-05-01 23:41:00,
2013-05-01 19:46:00,59.9,56.6,30.25,ENE,78,6.0,6.0,89,0.00,,,0.01,WUHU216DAVISVP2,2013-05-01 23:46:00,
2013-05-01 19:51:00,59.9,56.6,30.25,ENE,71,0.0,6.0,89,0.00,,,0.01,WUHU216DAVISVP2,2013-05-01 23:51:00,
2013-05-01 19:56:00,60.1,56.8,30.25,ENE,71,0.0,6.0,89,0.00,,,0.01,WUHU216DAVISVP2,2013-05-01 23:56:00,
2013-05-01 20:01:00,59.9,56.6,30.25,ENE,72,0.0,7.0,89,0.00,,,0.01,WUHU216DAVISVP2,2013-05-02 00:01:00,
2013-05-01 20:06:00,59.9,56.6,30.25,East,93,0.0,7.0,89,0.00,,,0.01,WUHU216DAVISVP2,2013-05-02 00:06:00,
2013-05-01 20:11:00,59.9,56.6,30.25,East,89,0.0,6.0,89,0.00,,,0.01,WUHU216DAVISVP2,2013-05-02 00:11:00,
2013-05-01 20:16:00,59.9,56.6,30.26,East,92,0.0,8.0,89,0.00,,,0.01,WUHU216DAVISVP2,2013-05-02 00:16:00,
2013-05-01 20:21:00,60.1,56.8,30.26,NNE,14,0.0,8.0,89,0.00,,,0.01,WUHU216DAVISVP2,2013-05-02 00:21:00,
2013-05-01 20:26:00,59.9,56.6,30.26,ESE,102,6.0,7.0,89,0.00,,,0.01,WUHU216DAVISVP2,2013-05-02 00:26:00,
2013-05-01 20:31:00,59.9,56.6,30.26,East,82,0.0,7.0,89,0.00,,,0.01,WUHU216DAVISVP2,2013-05-02 00:31:00,
2013-05-01 20:36:00,59.8,56.5,30.26,NW,325,0.0,6.0,89,0.00,,,0.01,WUHU216DAVISVP2,2013-05-02 00:36:00,
2013-05-01 20:41:00,59.9,56.6,30.26,East,85,0.0,6.0,89,0.00,,,0.01,WUHU216DAVISVP2,2013-05-02 00:41:00,
2013-05-01 20:46:00,59.8,56.5,30.26,East,83,0.0,8.0,89,0.00,,,0.01,WUHU216DAVISVP2,2013-05-02 00:46:00,
2013-05-01 20:51:00,59.8,56.5,30.26,North,3,1.0,8.0,89,0.00,,,0.01,WUHU216DAVISVP2,2013-05-02 00:51:00,
2013-05-01 20:56:00,59.8,56.5,30.26,East,97,0.0,7.0,89,0.00,,,0.01,WUHU216DAVISVP2,2013-05-02 00:56:00,
2013-05-01 21:01:00,59.8,56.5,30.27,NNW,346,8.0,8.0,89,0.00,,,0.01,WUHU216DAVISVP2,2013-05-02 01:01:00,
2013-05-01 21:06:00,59.8,56.5,30.27,ENE,72,0.0,8.0,89,0.00,,,0.01,WUHU216DAVISVP2,2013-05-02 01:06:00,
2013-05-01 21:11:00,59.6,56.3,30.27,ENE,78,0.0,8.0,89,0.00,,,0.01,WUHU216DAVISVP2,2013-05-02 01:11:00,
2013-05-01 21:16:00,59.6,56.3,30.28,ENE,76,0.0,4.0,89,0.00,,,0.01,WUHU216DAVISVP2,2013-05-02 01:16:00,
2013-05-01 21:21:00,59.6,56.4,30.28,East,79,1.0,6.0,89,0.00,,,0.01,WUHU216DAVISVP2,2013-05-02 01:21:00,
2013-05-01 21:26:00,59.6,56.3,30.28,East,79,0.0,6.0,89,0.00,,,0.01,WUHU216DAVISVP2,2013-05-02 01:26:00,
2013-05-01 21:31:00,59.6,56.3,30.28,NNE,32,0.0,2.0,89,0.00,,,0.01,WUHU216DAVISVP2,2013-05-02 01:31:00,
2013-05-01 21:36:00,59.5,56.2,30.28,ESE,110,1.0,7.0,89,0.00,,,0.01,WUHU216DAVISVP2,2013-05-02 01:36:00,
2013-05-01 21:41:00,59.5,56.2,30.28,ENE,66,6.0,7.0,89,0.00,,,0.01,WUHU216DAVISVP2,2013-05-02 01:41:00,
2013-05-01 21:46:00,59.5,56.2,30.29,East,85,0.0,6.0,89,0.00,,,0.01,WUHU216DAVISVP2,2013-05-02 01:46:00,
2013-05-01 21:51:00,59.5,56.3,30.29,NE,51,0.0,6.0,89,0.00,,,0.01,WUHU216DAVISVP2,2013-05-02 01:51:00,
2013-05-01 21:56:00,59.5,56.3,30.29,NE,48,0.0,2.0,89,0.00,,,0.01,WUHU216DAVISVP2,2013-05-02 01:56:00,
2013-05-01 22:01:00,59.6,56.4,30.30,East,82,0.0,7.0,89,0.00,,,0.01,WUHU216DAVISVP2,2013-05-02 02:01:00,
2013-05-01 22:06:00,59.5,56.3,30.30,East,80,0.0,7.0,89,0.00,,,0.01,WUHU216DAVISVP2,2013-05-02 02:06:00,
2013-05-01 22:11:00,59.5,56.3,30.30,East,88,0.0,4.0,89,0.00,,,0.01,WUHU216DAVISVP2,2013-05-02 02:11:00,
2013-05-01 22:16:00,59.5,56.2,30.30,ENE,58,2.0,6.0,89,0.00,,,0.01,WUHU216DAVISVP2,2013-05-02 02:16:00,
2013-05-01 22:22:00,59.5,56.2,30.30,East,82,0.0,6.0,89,0.00,,,0.01,WUHU216DAVISVP2,2013-05-02 02:22:00,
2013-05-01 22:27:00,59.5,56.2,30.30,NE,40,0.0,8.0,89,0.00,,,0.01,WUHU216DAVISVP2,2013-05-02 02:27:00,
2013-05-01 22:32:00,59.5,56.2,30.30,ESE,114,6.0,8.0,89,0.00,,,0.01,WUHU216DAVISVP2,2013-05-02 02:32:00,
2013-05-01 22:37:00,59.5,56.2,30.30,ENE,61,0.0,7.0,89,0.00,,,0.01,WUHU216DAVISVP2,2013-05-02 02:37:00,
2013-05-01 22:42:00,59.5,56.2,30.30,ENE,61,0.0,7.0,89,0.00,,,0.01,WUHU216DAVISVP2,2013-05-02 02:42:00,
2013-05-01 22:47:00,59.3,56.0,30.30,SE,141,0.0,4.0,89,0.00,,,0.01,WUHU216DAVISVP2,2013-05-02 02:47:00,
2013-05-01 22:52:00,59.3,56.0,30.30,East,83,1.0,7.0,89,0.00,,,0.01,WUHU216DAVISVP2,2013-05-02 02:52:00,
2013-05-01 22:57:00,59.3,56.0,30.30,ESE,107,0.0,7.0,89,0.00,,,0.01,WUHU216DAVISVP2,2013-05-02 02:57:00,
2013-05-01 23:02:00,59.3,56.1,30.30,NW,325,0.0,6.0,89,0.00,,,0.01,WUHU216DAVISVP2,2013-05-02 03:02:00,
2013-05-01 23:07:00,59.5,56.3,30.30,NE,35,0.0,2.0,89,0.00,,,0.01,WUHU216DAVISVP2,2013-05-02 03:07:00,
2013-05-01 23:12:00,59.3,56.1,30.30,East,83,0.0,4.0,89,0.00,,,0.01,WUHU216DAVISVP2,2013-05-02 03:12:00,
2013-05-01 23:17:00,59.3,56.0,30.30,North,0,0.0,4.0,89,0.00,,,0.01,WUHU216DAVISVP2,2013-05-02 03:17:00,
2013-05-01 23:22:00,59.2,55.9,30.30,East,89,0.0,2.0,89,0.00,,,0.01,WUHU216DAVISVP2,2013-05-02 03:22:00,
2013-05-01 23:27:00,59.2,55.9,30.30,East,86,1.0,1.0,89,0.00,,,0.01,WUHU216DAVISVP2,2013-05-02 03:27:00,
2013-05-01 23:32:00,59.2,55.9,30.30,East,79,0.0,2.0,89,0.00,,,0.01,WUHU216DAVISVP2,2013-05-02 03:32:00,
2013-05-01 23:37:00,59.2,55.9,30.30,East,79,0.0,2.0,89,0.00,,,0.01,WUHU216DAVISVP2,2013-05-02 03:37:00,
2013-05-01 23:42:00,59.2,55.9,30.30,ENE,75,0.0,4.0,89,0.00,,,0.01,WUHU216DAVISVP2,2013-05-02 03:42:00,
2013-05-01 23:47:00,59.0,55.7,30.30,ENE,72,0.0,4.0,89,0.00,,,0.01,WUHU216DAVISVP2,2013-05-02 03:47:00,
2013-05-01 23:52:00,59.0,55.7,30.30,East,93,0.0,4.0,89,0.00,,,0.01,WUHU216DAVISVP2,2013-05-02 03:52:00,
2013-05-01 23:57:00,59.0,55.7,30.30,SE,140,0.0,4.0,89,0.00,,,0.01,WUHU216DAVISVP2,2013-05-02 03:57:00,